Weather History for KFLL - November, 2011

Change the Weather History Date:

Saturday, November 26, 2011

  Actual Average Record
Temperature  
Mean Temperature 77 °F 74 °F  
Max Temperature 80 °F 80 °F 87 °F (1955)
Min Temperature 73 °F 68 °F 35 °F (1950)
Degree Days  
Heating Degree Days 0 0  
Month to date heating degree days 0 0  
Since 1 July heating degree days 0 0  
Cooling Degree Days 12 9  
Month to date cooling degree days 287 283  
Year to date cooling degree days 4562 4477  
Growing Degree Days 26 (Base 50)    
Moisture  
Dew Point 60 °F    
Average Humidity 59    
Maximum Humidity 73    
Minimum Humidity 45    
Precipitation  
Precipitation 0.01 in 0.10 in 2.50 in (1920)
Month to date precipitation 0.42 2.83  
Year to date precipitation 39.29 59.31  
Snow  
Snow 0.00 in - - ()
Month to date snowfall 0.0  
Since 1 July snowfall 0.0  
Since 1 September snowfall 0.0  
Snow Depth 0.00 in    
Sea Level Pressure  
Sea Level Pressure 30.13 in    
Wind  
Wind Speed 16 mph (East)    
Max Wind Speed 23 mph    
Max Gust Speed 30 mph    
Visibility 10 miles    
Events Rain    
T = Trace of Precipitation, MM = Missing Value Source: NWS Daily Summary

Daily Weather History Graph

Daily Weather History Graph

Search for Another Location

Airport or City:

Trip Planner

Search our weather history database for the weather conditions in past years. The results will help you decide how hot, cold, wet, or windy it might be!

Date:

Astronomy

Nov. 26, 2011 Rise Set
Actual Time 6:46 AM EST 5:28 PM EST
Civil Twilight 6:22 AM EST 5:53 PM EST
Nautical Twilight 5:53 AM EST 6:21 PM EST
Astronomical Twilight 5:25 AM EST 6:49 PM EST
Moon 8:10 AM EST (11/26) 7:02 PM EST (11/26)
Length of Visible Light 11h 31m
Length of Day
10h 41m
Waxing Crescent, 3% of the Moon is Illuminated
Nov 26
Waxing Crescent
Dec 2
First Quarter
Dec 10
Full
Dec 17
Last Quarter
Dec 24
New

Hourly Weather History & Observations

Time (EST) Temp. Heat Index Dew Point Humidity Pressure Visibility Wind Dir Wind Speed Gust Speed Precip Events Conditions
12:53 AM 75.2 °F - 62.6 °F 65% 30.13 in 10.0 mi ENE 16.1 mph 23.0 mph N/A   Scattered Clouds
1:53 AM 75.0 °F - 60.1 °F 60% 30.13 in 10.0 mi East 15.0 mph 23.0 mph N/A   Mostly Cloudy
2:53 AM 73.0 °F - 64.0 °F 73% 30.13 in 7.0 mi East 16.1 mph - 0.01 in Rain Light Rain
3:53 AM 73.9 °F - 60.1 °F 62% 30.12 in 10.0 mi East 13.8 mph - 0.00 in   Scattered Clouds
4:53 AM 73.9 °F - 63.0 °F 68% 30.11 in 10.0 mi East 13.8 mph 24.2 mph N/A   Mostly Cloudy
5:53 AM 73.9 °F - 64.9 °F 73% 30.12 in 10.0 mi East 16.1 mph 23.0 mph N/A   Mostly Cloudy
6:53 AM 73.0 °F - 62.1 °F 68% 30.14 in 10.0 mi East 16.1 mph 23.0 mph 0.00 in Rain Light Rain
7:53 AM 73.9 °F - 57.9 °F 57% 30.15 in 10.0 mi East 12.7 mph - N/A   Scattered Clouds
8:53 AM 77.0 °F - 57.0 °F 50% 30.17 in 10.0 mi East 20.7 mph 25.3 mph N/A   Scattered Clouds
9:53 AM 79.0 °F - 57.0 °F 47% 30.19 in 10.0 mi ESE 18.4 mph 27.6 mph N/A   Scattered Clouds
10:53 AM 78.1 °F - 57.9 °F 50% 30.18 in 10.0 mi East 16.1 mph 25.3 mph N/A   Mostly Cloudy
11:53 AM 80.1 °F 80.7 °F 59.0 °F 48% 30.16 in 10.0 mi East 16.1 mph 24.2 mph N/A   Mostly Cloudy
12:53 PM 80.1 °F 80.6 °F 57.9 °F 47% 30.13 in 10.0 mi East 16.1 mph 21.9 mph N/A   Scattered Clouds
1:53 PM 80.1 °F 80.7 °F 59.0 °F 48% 30.11 in 10.0 mi East 17.3 mph 23.0 mph N/A   Scattered Clouds
2:53 PM 80.1 °F 80.9 °F 60.1 °F 50% 30.10 in 10.0 mi East 16.1 mph - N/A   Mostly Cloudy
3:53 PM 78.1 °F - 60.1 °F 54% 30.10 in 10.0 mi East 15.0 mph - N/A   Scattered Clouds
4:53 PM 77.0 °F - 61.0 °F 58% 30.10 in 10.0 mi East 13.8 mph 24.2 mph N/A   Scattered Clouds
5:53 PM 77.0 °F - 60.1 °F 56% 30.11 in 10.0 mi East 13.8 mph - N/A   Scattered Clouds
6:53 PM 75.9 °F - 61.0 °F 60% 30.11 in 10.0 mi East 16.1 mph - N/A   Scattered Clouds
7:53 PM 75.9 °F - 60.1 °F 58% 30.11 in 10.0 mi East 16.1 mph 24.2 mph N/A   Scattered Clouds
8:53 PM 75.9 °F - 59.0 °F 56% 30.12 in 10.0 mi East 12.7 mph 21.9 mph N/A   Mostly Cloudy
9:53 PM 75.0 °F - 59.0 °F 57% 30.12 in 10.0 mi East 17.3 mph 24.2 mph N/A   Partly Cloudy
10:53 PM 75.9 °F - 57.0 °F 52% 30.12 in 10.0 mi East 15.0 mph 27.6 mph N/A   Scattered Clouds
11:53 PM 75.0 °F - 57.0 °F 53% 30.10 in 10.0 mi ESE 16.1 mph - N/A   Mostly Cloudy